Powrót do katalogu

SL-8 R/B

AktywnyLEO
NORAD 10121·ROCKET BODY·🇷🇺 Russia

Wystrzelony Jul 1, 1977 z Plesetsk Cosmodrome

Loading…

Następne Przeloty (najbliższe 24 godziny)

TLE

ŚwieżeSource: Space-Track

Epoka: Sep 13, 2026, 12:08 UTC

1 10121U 77059B   26256.50623645  .00000022  00000-0  16152-4 0  9998
2 10121  74.0451  56.2827 0019303 293.0646  66.8472 14.37430999574181

Śledź SL-8 R/B w czasie rzeczywistym z AllMySat

Download on the App Store